Location: Olsztyn
(53.7767°N, 20.4765°E)
Time: 23:32:51
(UTC+02:00)

Transit 4A - Visible Passes

Search period start: 27 May 2022 00:00
Search period end: 06 June 2022 00:00
Orbit: 863 x 981 km, 66.8° (Epoch: 26 May)

Date Brightness Start Highest point End Pass type
(mag) Time Alt. Az. Time Alt. Az. Time Alt. Az.
27 May 10.3 02:28:40 10° ESE 02:30:44 12° E 02:32:48 10° E visible
28 May 10.1 02:35:42 10° SE 02:39:35 17° ESE 02:43:29 10° ENE visible
29 May 9.7 02:43:37 10° SSE 02:48:30 24° ESE 02:53:25 10° ENE visible
30 May 9.3 02:51:58 10° S 02:57:30 32° ESE 03:03:03 10° NE visible
31 May 8.9 03:00:36 10° S 03:06:34 43° ESE 03:12:34 10° NE visible
01 Jun 10.1 01:27:43 10° SE 01:30:36 13° E 01:33:29 10° ENE visible
01 Jun 8.5 03:09:28 10° SSW 03:15:42 57° ESE 03:21:58 10° NE visible
02 Jun 9.8 01:35:11 10° SSE 01:39:28 19° ESE 01:43:47 10° ENE visible
02 Jun 8.2 03:18:31 10° SSW 03:24:55 75° SE 03:31:20 10° NE visible
03 Jun 9.4 01:43:25 11° SSE 01:48:26 26° ESE 01:53:36 10° NE visible
04 Jun 9.0 01:52:24 13° S 01:57:27 35° ESE 02:03:10 10° NE visible
05 Jun 10.2 00:20:54 10° ESE 00:21:39 10° E 00:22:24 10° E visible
05 Jun 8.6 02:01:19 14° S 02:06:33 47° ESE 02:12:38 10° NE visible
